Rbgn^[z[y[W
メイン
   新天体発見情報
     Comet C/2021 V1 (Rankin)
投稿するにはまず登録を

スレッド表示 | 新しいものから 前のトピック | 次のトピック | 下へ
投稿者 スレッド
佐藤裕久
投稿日時: 2021-11-21 5:49
モデレータ
登録日: 2005-6-12
居住地: 日本
投稿: 2505
オンライン
Comet C/2021 V1 (Rankin)

David Rankinの通報によると、11月5日、Mt Lemmonの1.5-m 反射望遠鏡で得た4枚の30秒発見
CCD画像から、4".8のコマのある彗星を発見した。
小惑星センターのPCCP webpageに公表後、佐藤英貴氏(東京都文京区, 11月6.15-6.17日, 60秒
露出16枚のスタック,0.43-m f/6.8 アストログラフ, Mayhill近郊, ニューメキシコ州, 米国, 
遠隔操作: 強く集光した8" のコマが見えるが尾はない。5".7の円形範囲で測定した光度は
20.3等であった)によって彗星状と観測された。

彗星機能の報告は次のとおり、

OC   Date        Reporter           Coma    Tail    PA          Exposures
H06  2021-11-06  H. Sato            8"                           24x60s

発見位置は次のとおり、

     2021 UT             R.A. (2000) Decl.       Mag.   Observer
     Nov.  5.16078   23 27 04.37   +33 50 54.9   20.9   Rankin
           5.16600   23 27 04.36   +33 50 47.5   20.6     "
           5.17122   23 27 04.29   +33 50 39.8   20.7     "

MPCの準放物線軌道要素、位置推算表は次のとおり、

Orbital elements:
    C/2021 V1 (Rankin)                                                          
Epoch 2022 Apr. 11.0 TT = JDT 2459680.5                                         
T 2022 Apr. 30.39609 TT                                 Rudenko                 
q   3.0132977            (2000.0)            P               Q                  
z  +0.0015244      Peri.  195.11478     +0.81662907     -0.37352427             
 +/-0.0000871      Node   207.65284     +0.57683849     +0.50264876             
e   0.9954066      Incl.   71.44817     -0.01934714     -0.77963058             
From 40 observations 2021 Oct. 2-Nov. 7, mean residual 0".4.                    
                                                                                
    C/2021 V1 (Rankin)                                                          
Epoch 2022 Jan. 21.0 TT = JDT 2459600.5                                         
T 2022 Apr. 30.38335 TT                                 Rudenko                 
q   3.0133192            (2000.0)            P               Q                  
z  +0.0014934      Peri.  195.11161     +0.81663849     -0.37351773             
 +/-0.0000871      Node   207.65294     +0.57682711     +0.50273633             
e   0.9955000      Incl.   71.44298     -0.01928867     -0.77957725             
From 40 observations 2021 Oct. 2-Nov. 7, mean residual 0".4.                    
                                                                                
Ephemeris:
Date    TT    R. A. (2000) Decl.     Delta      r    Elong.  Phase   m1
2021 10 09    23 37 54.7 +43 39 56   2.7940  3.6044   138.6    10.6  20.8
...
2021 10 24    23 30 02.9 +38 30 38   2.7232  3.5286   138.3    10.8  20.7
...
2021 11 01    23 27 43.2 +35 28 07   2.7145  3.4896   135.2    11.6  20.6
...
2021 11 07    23 26 54.8 +33 07 47   2.7212  3.4611   131.8    12.3  20.6
2021 11 08    23 26 51.5 +32 44 19   2.7234  3.4565   131.1    12.5  20.6
2021 11 09    23 26 49.5 +32 20 51   2.7259  3.4518   130.4    12.6  20.6
...
2021 11 15    23 27 06.1 +30 00 55   2.7470  3.4242   126.1    13.5  20.5
...
2021 11 23    23 28 40.6 +26 59 17   2.7905  3.3885   119.6    14.7  20.5
...
2021 12 08    23 35 01.5 +21 46 51   2.9122  3.3250   106.2    16.5  20.5

(MPEC 2021-V167、CBET 5067)

スレッド表示 | 新しいものから 前のトピック | 次のトピック | トップ

投稿するにはまず登録を
 
© 1999 Tsutomu Seki.